www.pogodaiklimat.ru

Погода и климат >> Архив погоды >> Канада >> Альберта >> Уэйнрайт


ПОГОДА в Уэйнрайте

  • Прогноз погоды в Уэйнрайте
  • Монитор погоды в Уэйнрайте

АРХИВ ПОГОДЫ в Уэйнрайте

Время (UTC), дата Ветер
(напр.,м/с)
 
Видим.   Явления Облачность Т
(С)
Тd
(С)
f
(%)
Тe
(С)
Тes
(С)
Комфортность P
(гПа)
Po
(гПа)
Тmin
(С)
Tmax
(С)
R
(мм)
R24
(мм)
S
(см)
18 9.06 СЗ 5 н/о н/о +12.5 +4.0 56 +10 +10 1023.7 941.4 +3.5 +13.3
21 9.06 З 6 н/о н/о +15.4 +3.4 45 +14 +14 1023.3 941.3
00 10.06 З 4 н/о н/о +14.8 +5.0 52 +14 +14 1023.5 941.3 +3.5 +16.5
03 10.06 ЮЗ 2 н/о н/о +12.9 +6.0 63 +12 +12 1023.0 941.0
06 10.06 З 3 н/о н/о +9.3 +5.9 79 +7 +7 1023.3 941.3 +3.5 +16.5 23
09 10.06 ЮЗ 4 н/о н/о +6.3 +4.4 88 +2 +2 1023.2 941.2
12 10.06 ЮЗ 3 н/о н/о +5.0 +3.2 88 +1 +1 1022.7 940.6 +4.9 +16.5
15 10.06 ЮЗ 3 н/о н/о +13.9 +6.1 59 +13 +13 1021.4 940.0
18 10.06 З 4 н/о н/о +18.9 +2.5 34 +19 +19 1020.0 938.8 +4.9 +19.5
21 10.06 З 4 н/о н/о +21.7 +1.5 26 +21 +21 комфорт 1018.3 937.2
00 11.06 В 2 н/о н/о +17.8 +6.1 46 +19 +19 1018.9 937.4 +4.9 +21.9
03 11.06 СЗ 3 н/о н/о +15.4 +6.6 56 +15 +15 1019.1 938.0
06 11.06 СЗ 2 н/о н/о +11.9 +6.8 71 +11 +11 1020.1 939.1 +4.9 +21.9 19
09 11.06 СЗ 3 н/о н/о +9.2 +6.1 81 +7 +7 1020.8 939.7
12 11.06 ЮЗ 3 н/о н/о +7.3 +5.4 88 +5 +5 1022.7 941.0 +6.6 +21.9
15 11.06 З 3 н/о н/о +14.0 +7.4 64 +13 +13 1023.2 941.8
18 11.06 З 4 н/о н/о +18.3 +6.5 46 +18 +18 1022.8 941.5 +6.6 +19.3
21 11.06 СЗ 4 н/о н/о +18.8 +5.9 43 +19 +19 1022.9 941.4
00 12.06 СЗ 6 н/о н/о +21.7 +4.9 33 +22 +22 комфорт 1022.1 940.8 +6.6 +21.9
03 12.06 СЗ 2 н/о н/о +17.6 +5.3 44 +18 +18 1021.2 940.1
06 12.06 Ю 2 н/о н/о +14.0 +5.7 57 +14 +14 1021.1 940.1 +6.6 +21.9 23
09 12.06 ЮЗ 3 н/о н/о +13.4 +7.4 67 +13 +13 1020.4 939.4
12 12.06 ЮЗ 5 н/о н/о +12.9 +9.3 79 +11 +11 1019.7 939.0 +12.3 +21.9
15 12.06 З 6 н/о н/о +20.2 +9.7 51 +21 +21 комфорт 1018.4 938.0
18 12.06 СЗ 5 н/о н/о +22.9 +9.0 41 +24 +24 комфорт 1016.8 936.5 +12.3 +23.4
21 12.06 СЗ 4 н/о н/о +24.7 +7.7 34 +25 +25 комфорт 1015.0 934.9
00 13.06 СЗ 3 н/о н/о +25.5 +7.6 32 +26 +26 жарко 1012.9 933.0 +12.3 +26.2
03 13.06 СЗ 1 н/о н/о +24.6 +9.8 39 +25 +25 комфорт 1010.7 931.4
06 13.06 Ю 2 н/о н/о +17.2 +9.5 61 +18 +18 1009.8 930.3 +12.3 +26.2 20
09 13.06 Ю 2 н/о н/о +15.1 +9.2 68 +15 +15 1008.8 929.3
12 13.06 С 3 н/о н/о +16.2 +10.9 71 +16 +16 1007.8 928.5 +13.3 +26.2
15 13.06 ЮВ 1 н/о н/о +17.9 +11.4 66 +20 +20 1007.1 927.9
18 13.06 В 2 н/о н/о +22.9 +10.9 47 +25 +25 комфорт 1005.9 926.7 +13.3 +23.4
21 13.06 З 3 н/о н/о +26.2 +8.9 34 +27 +27 жарко 1004.4 925.4
00 14.06 СЗ 6 н/о н/о +24.0 +9.4 40 +25 +25 комфорт 1004.5 925.4 +13.3 +27.2
03 14.06 С 1 н/о н/о +20.2 +10.4 53 +23 +23 комфорт 1005.2 925.9
06 14.06 СЗ 3 н/о н/о +16.2 +9.9 66 +16 +16 1005.0 925.8 +13.3 +27.2 0
09 14.06 ЮЗ 2 н/о н/о +14.5 +10.0 74 +14 +14 1005.4 926.2
12 14.06 З 2 н/о н/о +13.8 +10.3 79 +14 +14 1006.1 926.7 +13.0 +27.2
15 14.06 С 4 н/о н/о +17.9 +9.0 56 +18 +18 1007.6 928.1
18 14.06 СЗ 5 н/о н/о +21.6 +7.8 41 +23 +23 комфорт 1008.0 928.4 +13.0 +22.0
21 14.06 С 5 н/о н/о +21.5 +9.3 46 +23 +23 комфорт 1008.2 928.5
00 15.06 СЗ 4 н/о н/о +21.6 +8.5 43 +23 +23 комфорт 1008.8 929.0 +13.0 +23.1
03 15.06 СЗ 4 н/о н/о +18.5 +8.1 51 +19 +19 1010.0 930.2
06 15.06 СЗ 4 н/о н/о +15.0 +9.5 70 +14 +14 1011.4 931.5 +13.0 +23.1 19
09 15.06 СЗ 3 н/о н/о +12.8 +9.2 79 +12 +12 1012.3 932.1
12 15.06 З 3 н/о н/о +12.8 +9.4 80 +11 +11 1013.4 933.2 +12.5 +23.1
15 15.06 СЗ 2 н/о н/о +15.8 +9.8 67 +16 +16 1014.4 934.1
18 15.06 СЗ 4 н/о н/о +19.5 +8.1 48 +20 +20 1014.5 934.2 +12.5 +20.7
21 15.06 Ю 1 н/о н/о +17.0 +12.3 74 +19 +19 1014.4 933.7
00 16.06 н/о н/о +20.5 +6.6 40 1014.3 933.9 +12.5 +21.4
03 16.06 В 2 н/о н/о +14.8 +8.8 67 +15 +15 1015.8 935.1
06 16.06 ЮЗ 2 н/о н/о +11.9 +9.2 84 +11 +11 1015.6 935.0 +11.9 +21.4 23
09 16.06 ЮЗ 2 н/о н/о +8.7 +7.3 91 +7 +7 1016.4 935.3
12 16.06 З 1 н/о н/о +9.0 +7.5 90 +8 +8 1016.8 935.9 +8.3 +21.4
15 16.06 СЗ 2 н/о н/о +14.3 +11.3 82 +14 +14 1017.3 936.4

 

Местоположение метеостанции Уэйнрайт (Альберта, Канада): широта 52.82 долгота -111.10 высота над уровнем моря 686 м.

В архиве по умолчанию представлена погода в Уэйнрайте за последнюю неделю. Архивные данные за месяц целиком и за предыдущие месяцы, начиная с января 2011 года, Вы можете получить, выбрав интересующий диапазон дат из раскрывающегося списка и нажав кнопку "Ввод!".


*Определитесь, кто Вы:
робот инопланетянин человек

Внимание! Время в таблицах - всемирное. Для получения местного времени необходимо прибавить поправку, которая равна -7 ч.

Смотрите также архив погоды в соседних городах и на ближайших метеорологических станциях:

Погода в Альберт-холле (Альберта, Канада) (31 км)
Погода в Хагендене (Альберта, Канада) (35 км)
Погода в Белсхилле (Альберта, Канада) (36 км)
Погода в Гилт Эдж Норд (Альберта, Канада) (43 км)
Погода в Эджертоне (Альберта, Канада) (46 км)
Погода в Килламе (Альберта, Канада) (47 км)
Погода в Рибстоне (Альберта, Канада) (58 км)
Погода в Кесслере (Альберта, Канада) (60 км)
Погода в Вермилейне (Альберта, Канада) (60 км)
Погода в Кадогане (Альберта, Канада) (68 км)

Пояснения к столбцам:

Ветер - указаны скорость ветра в м/с - средняя за 10 мин, порывы в срок и между сроками (в фигурных скобках) и направление, откуда дует ветер: С - северный, СВ - северо-восточный, В - восточный, ЮВ - юго-восточный, Ю - южный, ЮЗ - юго-западный, З - западный, СЗ - северо-западный.
Видимость - горизонтальная дальность видимости в метрах или километрах. При видимости от 1 до 10 км при отсутствии осадков обычно наблюдается дымка, при ухудшении видимости до 1 км и менее - туман. В сухую погоду видимость может ухудшаться дымом, пылью или мглою.
Явления - указаны атмосферные явления, наблюдавшиеся в срок или в последний час перед сроком; фигурными скобками обозначены явления, наблюдавшиеся между сроками (за 1-3 часа до срока); квадратными скобками обозначены град или гололедные отложения с указанием их диаметра в мм.
Облачность - указаны через наклонную черту общая и нижняя облачность в баллах и высота нижней границы облаков в метрах; квадратными скобками обозначены формы облаков: Ci - перистые, Cs - перисто-слоистые, Cc - перисто-кучевые, Ac - высококучевые, As - высокослоистые, Sc - слоисто-кучевые, Ns - слоисто-дождевые, Cu - кучевые, Cb - кучево-дождевые. Подробнее классификацию облаков см. в Атласе облаков (PDF).
T - Температура воздуха - температура, измеренная на высоте 2 м над землей.
Td - Температура точки росы - температура, при понижении до которой содержащийся в воздухе водяной пар достигнет насыщения.
f - Относительная влажность воздуха - влажноcть воздуха, измеренная на высоте 2 м над землей.
Te - Эффективная температура - температура, которую ощущает одетый по сезону человек в тени. Характеристика душности погоды. При расчете учитывается влияние влажности воздуха и скорости ветра на теплоощущения человека.
Tes - Эффективная температура на солнце - температура, которую ощущает человек, с поправкой на солнечный нагрев. Характеристика знойности погоды. Зависит от высоты солнца над горизонтом, облачности и скорости ветра. Ночью, в пасмурную погоду, а также при ветре 12 м/с и более поправка равна нулю.
P - Атмосферное давление - приведенное к уровню моря атмосферное давление.
Po - Атмосферное давление - измеренное на уровне метеостанции атмосферное давление.
Tmin - Минимальная температура - минимум температуры воздуха на высоте 2 м над землей.
Tmax - Максимальная температура - максимум температуры воздуха на высоте 2 м над землей.
R - Количество осадков - Количество выпавших осадков за период времени, мм. При наведении курсора мыши на число - период времени, за который выпало указанное количество осадков.
R24 - Количество осадков - Количество выпавших осадков за 24 часа, мм.
S - Снежный покров - Высота снежного покрова, см. При наведении курсора мыши на число - состояние снежного покрова и степень покрытия местности в баллах.